Elmira, NY

11:52 AM EDT on September 30, 2016 (GMT -0400)
Elmira-Corning Regional

Weather History for KELM - February, 2013

Change the Weather History Date:

Sunday, February 24, 2013

  Actual Average Record
Temperature  
Mean Temperature 30 °F -  
Max Temperature 33 °F 38 °F 63 °F (1943)
Min Temperature 26 °F 19 °F -17 °F (2015)
Degree Days  
Heating Degree Days 36    
Moisture  
Dew Point 24 °F    
Average Humidity 77    
Maximum Humidity 100    
Minimum Humidity 56    
Precipitation  
Precipitation 0.00 in - - ()
Sea Level Pressure  
Sea Level Pressure 29.91 in    
Wind  
Wind Speed 5 mph (WNW)    
Max Wind Speed 17 mph    
Max Gust Speed 25 mph    
Visibility 6 miles    
Events Fog , Snow    
Averages and records for this station are not official NWS values.
T = Trace of Precipitation, MM = Missing Value Source: NWS Daily Summary

Daily Weather History Graph

Daily Weather History Graph

Search for Another Location

Airport or City:

Trip Planner

Search our weather history database for the weather conditions in past years. The results will help you decide how hot, cold, wet, or windy it might be!

Date:

Astronomy

Feb. 24, 2013 Rise Set
Actual Time 6:50 AM EST 5:51 PM EST
Civil Twilight 6:21 AM EST 6:20 PM EST
Nautical Twilight 5:49 AM EST 6:52 PM EST
Astronomical Twilight 5:17 AM EST 7:25 PM EST
Moon 5:00 PM EST (2/24) 5:46 AM EST (2/24)
Length of Visible Light 11h 58m
Length of Day
11h 01m
Waxing Gibbous, 99% of the Moon is Illuminated
Feb 24
Waxing Gibbous
Feb 25
Full
Mar 4
Last Quarter
Mar 11
New
Mar 19
First Quarter

Hourly Weather History & Observations

Time (EST) Temp. Windchill Dew Point Humidity Pressure Visibility Wind Dir Wind Speed Gust Speed Precip Events Conditions
12:28 AM 26.6 °F - 24.8 °F 93% 29.84 in 0.2 mi Calm Calm - N/A Fog Light Freezing Fog
12:53 AM 30.0 °F 26.5 °F 28.0 °F 92% 29.86 in 0.8 mi East 3.5 mph - N/A   Mist
12:57 AM 28.4 °F 24.6 °F 28.4 °F 100% 29.83 in 2.5 mi East 3.5 mph - N/A   Overcast
1:04 AM 30.2 °F 26.7 °F 28.4 °F 93% 29.83 in 4.0 mi ESE 3.5 mph - N/A   Overcast
1:53 AM 30.9 °F 24.3 °F 28.9 °F 92% 29.84 in 6.0 mi East 6.9 mph - N/A   Overcast
2:53 AM 30.9 °F - 28.9 °F 92% 29.86 in 5.0 mi Calm Calm - N/A   Overcast
3:53 AM 30.9 °F - 28.9 °F 92% 29.85 in 5.0 mi Calm Calm - N/A   Overcast
4:53 AM 30.9 °F - 28.9 °F 92% 29.85 in 5.0 mi Calm Calm - N/A   Overcast
5:53 AM 30.9 °F - 28.9 °F 92% 29.85 in 4.0 mi Calm Calm - N/A   Overcast
6:53 AM 30.9 °F - 28.9 °F 92% 29.86 in 4.0 mi Calm Calm - N/A   Overcast
7:16 AM 30.2 °F - 28.4 °F 93% 29.83 in 2.5 mi Calm Calm - N/A   Overcast
7:24 AM 30.2 °F - 28.4 °F 93% 29.83 in 3.0 mi Calm Calm - N/A   Overcast
7:53 AM 30.9 °F 23.5 °F 24.1 °F 76% 29.87 in 10.0 mi NW 8.1 mph - N/A   Overcast
8:53 AM 30.0 °F 22.4 °F 21.0 °F 69% 29.88 in 10.0 mi NW 8.1 mph - N/A   Overcast
9:53 AM 30.9 °F 22.8 °F 21.0 °F 67% 29.89 in 10.0 mi WNW 9.2 mph - N/A   Overcast
10:41 AM 30.2 °F 22.6 °F 19.4 °F 64% 29.86 in 10.0 mi West 8.1 mph - N/A   Overcast
10:53 AM 30.9 °F 22.8 °F 21.0 °F 67% 29.89 in 10.0 mi West 9.2 mph - N/A   Overcast
11:53 AM 33.1 °F 25.5 °F 19.9 °F 59% 29.89 in 10.0 mi WNW 9.2 mph - N/A   Overcast
12:53 PM 33.1 °F 24.9 °F 19.0 °F 56% 29.89 in 9.0 mi WNW 10.4 mph 18.4 mph 0.00 in Snow Light Snow
1:53 PM 33.1 °F 24.4 °F 19.0 °F 56% 29.89 in 7.0 mi WNW 11.5 mph 24.2 mph 0.00 in Snow Light Snow
2:43 PM 30.2 °F 18.5 °F 21.2 °F 69% 29.88 in 1.8 mi West 17.3 mph 25.3 mph 0.00 in Snow Light Snow
2:49 PM 30.2 °F 20.8 °F 24.8 °F 80% 29.88 in 0.8 mi West 11.5 mph 25.3 mph 0.00 in Snow Light Snow
2:53 PM 30.0 °F 21.7 °F 24.1 °F 79% 29.92 in 1.0 mi West 9.2 mph 24.2 mph 0.00 in Snow Light Snow
2:57 PM 30.2 °F 20.2 °F 23.0 °F 75% 29.89 in 10.0 mi WNW 12.7 mph 20.7 mph 0.00 in Snow Light Snow
3:53 PM 32.0 °F 23.6 °F 19.9 °F 61% 29.93 in 6.0 mi West 10.4 mph - 0.00 in Snow Light Snow
4:53 PM 32.0 °F 24.8 °F 21.0 °F 64% 29.96 in 3.0 mi WNW 8.1 mph 20.7 mph 0.00 in   Haze
5:53 PM 30.0 °F 20.0 °F 19.9 °F 66% 29.98 in 10.0 mi West 12.7 mph 20.7 mph 0.00 in   Overcast
6:53 PM 28.9 °F 20.4 °F 21.0 °F 72% 30.01 in 10.0 mi West 9.2 mph - 0.00 in   Mostly Cloudy
7:53 PM 28.9 °F 21.9 °F 21.9 °F 75% 30.03 in 8.0 mi West 6.9 mph - 0.00 in Snow Light Snow
8:53 PM 28.9 °F 20.4 °F 21.9 °F 75% 30.04 in 10.0 mi West 9.2 mph - 0.00 in   Overcast
9:39 PM 30.2 °F 22.6 °F 21.2 °F 69% 30.01 in 9.0 mi West 8.1 mph - 0.00 in Snow Light Snow
9:53 PM 30.0 °F 23.2 °F 21.9 °F 72% 30.05 in 10.0 mi WNW 6.9 mph - 0.00 in   Overcast
10:25 PM 30.2 °F 21.9 °F 21.2 °F 69% 30.02 in 10.0 mi WNW 9.2 mph 17.3 mph N/A   Overcast
10:53 PM 30.0 °F 20.5 °F 21.9 °F 72% 30.05 in 10.0 mi West 11.5 mph - N/A   Overcast
11:53 PM 30.0 °F 21.1 °F 21.0 °F 69% 30.05 in 10.0 mi West 10.4 mph - N/A   Overcast